KD7TTL Weather Reports


time (UTC)temp
C
wind
direction
speed
KPH
gust
KPH
rain 1hr
cm
rain 24hr
cm
rain mn
cm
humidity
%
barometer
mb
20260503194506 23 59 8.0 17.7 0.00 0.00 0.00 46 1014.4
20260503194002 23 80 1.6 11.3 0.00 0.00 0.00 50 1014.4
20260503193503 23 111 3.2 11.3 0.00 0.00 0.00 53 1014.5
20260503193003 23 93 1.6 11.3 0.00 0.00 0.00 49 1014.6
20260503192502 23 237 3.2 11.3 0.00 0.00 0.00 53 1014.6
20260503192005 23 72 4.8 9.7 0.00 0.00 0.00 54 1014.7
20260503191505 23 282 3.2 14.5 0.00 0.00 0.00 57 1014.7
20260503191007 22 193 3.2 16.1 0.00 0.00 0.00 55 1014.7
20260503190503 22 31 8.0 16.1 0.00 0.00 0.00 56 1014.7
20260503190002 22 85 4.8 11.3 0.00 0.00 0.00 52 1014.8
20260503185503 22 196 3.2 9.7 0.00 0.00 0.00 62 1014.8
20260503185003 22 178 1.6 16.1 0.00 0.00 0.00 59 1014.9
20260503184505 22 211 3.2 20.9 0.00 0.00 0.00 58 1015.0
20260503184003 22 55 9.7 20.9 0.00 0.00 0.00 59 1015.1
20260503183502 22 265 1.6 9.7 0.00 0.00 0.00 63 1015.1
20260503183002 21 232 1.6 9.7 0.00 0.00 0.00 62 1015.2
20260503182502 21 51 4.8 14.5 0.00 0.00 0.00 59 1015.3
20260503182002 21 30 3.2 14.5 0.00 0.00 0.00 61 1015.3
20260503181503 21 45 3.2 11.3 0.00 0.00 0.00 62 1015.3
20260503181003 21 43 3.2 12.9 0.00 0.00 0.00 60 1015.3
20260503180503 21 341 3.2 12.9 0.00 0.00 0.00 62 1015.3
20260503180005 21 9 3.2 12.9 0.00 0.00 0.00 63 1015.3
20260503175502 21 26 4.8 11.3 0.00 0.00 0.00 61 1015.4
20260503175003 21 291 4.8 11.3 0.00 0.00 0.00 59 1015.6
20260503174502 21 178 3.2 8.0 0.00 0.00 0.00 61 1015.5
20260503174003 21 111 3.2 9.7 0.00 0.00 0.00 60 1015.5
20260503173503 21 38 3.2 9.7 0.00 0.00 0.00 61 1015.5
20260503173003 20 232 1.6 6.4 0.00 0.00 0.00 64 1015.5
20260503172502 20 68 0.0 8.0 0.00 0.00 0.00 63 1015.5
20260503172002 20 41 4.8 8.0 0.00 0.00 0.00 61 1015.5
20260503171502 20 250 1.6 8.0 0.00 0.00 0.00 65 1015.5
20260503171003 19 38 3.2 8.0 0.00 0.00 0.00 62 1015.6
20260503170505 19 93 1.6 9.7 0.00 0.00 0.00 64 1015.5
20260503151009 10 9 0.0 1.6 0.00 0.00 0.00 96 1016.0
20260503150509 10 265 0.0 1.6 0.00 0.00 0.00 96 1016.0
20260503131013 7 51 0.0 1.6 0.00 0.00 0.00 93 1015.5
20260503130509 8 9 0.0 1.6 0.00 0.00 0.00 93 1015.5
20260503110512 8 51 0.0 1.6 0.00 0.00 0.00 92 1015.9
20260503090509 10 68 0.0 1.6 0.00 0.00 0.00 90 1015.9
20260503081531 10 9 0.0 1.6 0.00 0.00 0.00 89 1016.1
20260503081009 10 9 0.0 1.6 0.00 0.00 0.00 88 1016.1
20260503080511 10 309 0.0 1.6 0.00 0.00 0.00 88 1016.1
20260503072507 11 292 0.0 1.6 0.00 0.00 0.00 87 1016.0
20260503072009 11 325 0.0 1.6 0.00 0.00 0.00 87 1016.0
20260503071527 11 309 0.0 1.6 0.00 0.00 0.00 86 1016.0
20260503071009 11 325 0.0 1.6 0.00 0.00 0.00 86 1016.0
20260503070509 11 9 0.0 1.6 0.00 0.00 0.00 85 1016.0
20260503055010 12 61 0.0 1.6 0.00 0.00 0.00 79 1015.8
20260503054528 13 51 0.0 1.6 0.00 0.00 0.00 79 1015.8
20260503054009 13 325 0.0 1.6 0.00 0.00 0.00 78 1015.7
20260503053508 13 309 0.0 1.6 0.00 0.00 0.00 78 1015.7
20260503053029 13 309 0.0 1.6 0.00 0.00 0.00 77 1015.7
20260503052509 13 9 0.0 3.2 0.00 0.00 0.00 77 1015.8
20260503052013 13 309 0.0 3.2 0.00 0.00 0.00 77 1015.8
20260503051524 13 51 0.0 1.6 0.00 0.00 0.00 76 1015.7
20260503051009 14 9 0.0 1.6 0.00 0.00 0.00 75 1015.7
20260503050509 14 51 0.0 1.6 0.00 0.00 0.00 75 1015.6
20260503050035 14 9 0.0 1.6 0.00 0.00 0.00 74 1015.6
20260503045509 14 9 0.0 1.6 0.00 0.00 0.00 73 1015.6
20260503045016 15 319 0.0 1.6 0.00 0.00 0.00 72 1015.6
20260503044503 15 309 0.0 1.6 0.00 0.00 0.00 71 1015.5
20260503044002 15 93 0.0 1.6 0.00 0.00 0.00 69 1015.5
20260503043503 15 51 0.0 1.6 0.00 0.00 0.00 69 1015.4
20260503043002 15 51 0.0 1.6 0.00 0.00 0.00 69 1015.3
20260503042502 15 9 0.0 1.6 0.00 0.00 0.00 68 1015.3
20260503042001 15 9 0.0 1.6 0.00 0.00 0.00 68 1015.2
20260503041507 16 178 0.0 1.6 0.00 0.00 0.00 69 1015.2
20260503041003 16 93 0.0 1.6 0.00 0.00 0.00 67 1015.2
20260503040502 16 51 0.0 1.6 0.00 0.00 0.00 66 1015.2
20260503040005 17 120 0.0 1.6 0.00 0.00 0.00 65 1015.2
20260503035503 17 34 0.0 1.6 0.00 0.00 0.00 63 1015.0
20260503035004 17 9 0.0 3.2 0.00 0.00 0.00 61 1014.9
20260503034504 17 51 0.0 3.2 0.00 0.00 0.00 60 1014.9
20260503034005 17 265 0.0 3.2 0.00 0.00 0.00 59 1014.9
20260503033504 18 9 0.0 3.2 0.00 0.00 0.00 59 1014.8
20260503033004 18 51 0.0 3.2 0.00 0.00 0.00 59 1014.7
20260503032505 18 309 0.0 1.6 0.00 0.00 0.00 57 1014.6
20260503032003 18 265 0.0 1.6 0.00 0.00 0.00 57 1014.7
20260503031516 18 221 0.0 3.2 0.00 0.00 0.00 57 1014.6
20260503031005 18 51 0.0 3.2 0.00 0.00 0.00 56 1014.6
20260503030504 19 9 0.0 1.6 0.00 0.00 0.00 55 1014.4
20260503030003 19 9 0.0 1.6 0.00 0.00 0.00 54 1014.4
20260503025502 19 51 0.0 1.6 0.00 0.00 0.00 54 1014.4
20260503025002 19 248 0.0 3.2 0.00 0.00 0.00 53 1014.4
20260503024507 20 265 0.0 3.2 0.00 0.00 0.00 53 1014.4
20260503024003 20 221 0.0 3.2 0.00 0.00 0.00 53 1014.4
20260503023510 20 51 0.0 3.2 0.00 0.00 0.00 52 1014.4
20260503023004 20 9 0.0 3.2 0.00 0.00 0.00 51 1014.3
20260503022506 20 178 0.0 4.8 0.00 0.00 0.00 51 1014.3
20260503022003 20 265 0.0 6.4 0.00 0.00 0.00 51 1014.3
20260503021506 20 309 0.0 8.0 0.00 0.00 0.00 51 1014.3
20260503021003 20 76 3.2 8.0 0.00 0.00 0.00 50 1014.4
20260503020503 20 41 0.0 8.0 0.00 0.00 0.00 50 1014.3
20260503020004 20 30 1.6 6.4 0.00 0.00 0.00 49 1014.3
20260503015502 21 51 0.0 8.0 0.00 0.00 0.00 49 1014.4
20260503015002 21 9 0.0 12.9 0.00 0.00 0.00 49 1014.4
20260503014503 21 33 4.8 12.9 0.00 0.00 0.00 47 1014.5
20260503014002 21 312 1.6 11.3 0.00 0.00 0.00 47 1014.5
20260503013502 21 19 0.0 9.7 0.00 0.00 0.00 48 1014.5
20260503013009 21 334 1.6 9.7 0.00 0.00 0.00 49 1014.6
20260503012503 21 309 3.2 9.7 0.00 0.00 0.00 48 1014.6
20260503012003 21 31 1.6 11.3 0.00 0.00 0.00 47 1014.7
20260503011504 21 39 1.6 11.3 0.00 0.00 0.00 48 1014.7
20260503011004 21 334 1.6 11.3 0.00 0.00 0.00 49 1014.7
20260503010510 21 32 0.0 11.3 0.00 0.00 0.00 49 1014.8
20260503010028 21 68 3.2 9.7 0.00 0.00 0.00 47 1014.8
20260503005510 21 325 1.6 9.7 0.00 0.00 0.00 49 1014.9
20260503005009 21 330 1.6 16.1 0.00 0.00 0.00 49 1014.9
20260503004524 21 9 1.6 16.1 0.00 0.00 0.00 52 1014.9
20260503004007 22 42 3.2 11.3 0.00 0.00 0.00 51 1015.0
20260503003508 22 301 3.2 14.5 0.00 0.00 0.00 51 1014.9
20260503003024 22 38 1.6 14.5 0.00 0.00 0.00 53 1014.9
20260503002510 22 50 4.8 12.9 0.00 0.00 0.00 51 1014.9
20260503002014 22 34 1.6 12.9 0.00 0.00 0.00 52 1014.9
20260503001524 22 303 1.6 12.9 0.00 0.00 0.00 51 1014.9
20260503001007 22 314 3.2 12.9 0.00 0.00 0.00 52 1015.0
20260503000511 22 250 4.8 11.3 0.00 0.00 0.00 51 1015.1
20260503000023 22 26 3.2 11.3 0.00 0.00 0.00 50 1015.1
20260502235508 23 319 3.2 9.7 0.00 0.00 0.00 50 1015.1
20260502235011 23 51 1.6 11.3 0.00 0.00 0.00 51 1015.1
20260502234521 23 225 3.2 9.7 0.00 0.00 0.00 51 1015.1
20260502234009 23 34 3.2 8.0 0.00 0.00 0.00 51 1015.3
20260502233510 22 86 1.6 9.7 0.00 0.00 0.00 51 1015.2
20260502233024 22 183 1.6 12.9 0.00 0.00 0.00 53 1015.4
20260502232509 22 214 1.6 16.1 0.00 0.00 0.00 52 1015.4
20260502232010 22 338 4.8 16.1 0.00 0.00 0.00 54 1015.4
20260502231524 23 9 1.6 14.5 0.00 0.00 0.00 52 1015.5
20260502231007 23 53 3.2 11.3 0.00 0.00 0.00 54 1015.5
20260502230511 22 250 1.6 11.3 0.00 0.00 0.00 56 1015.7
20260502230026 22 227 4.8 16.1 0.00 0.00 0.00 56 1015.7
20260502225510 22 265 1.6 16.1 0.00 0.00 0.00 57 1015.8
20260502225011 23 38 1.6 14.5 0.00 0.00 0.00 58 1015.8
20260502224524 22 24 4.8 14.5 0.00 0.00 0.00 58 1015.9
20260502224009 22 250 3.2 16.1 0.00 0.00 0.00 59 1015.9
20260502223502 22 32 3.2 16.1 0.00 0.00 0.00 62 1016.0
20260502223002 22 22 3.2 14.5 0.00 0.00 0.00 58 1016.1
20260502222502 22 165 1.6 12.9 0.00 0.00 0.00 61 1016.1
20260502222002 22 303 3.2 19.3 0.00 0.00 0.00 59 1016.2
20260502221506 22 265 3.2 19.3 0.00 0.00 0.00 61 1016.2
20260502221002 22 47 4.8 14.5 0.00 0.00 0.00 60 1016.2
20260502220502 22 13 1.6 19.3 0.00 0.00 0.00 63 1016.2
20260502220005 22 68 6.4 19.3 0.00 0.00 0.00 62 1016.3
20260502215502 22 303 1.6 19.3 0.00 0.00 0.00 62 1016.4
20260502215003 22 65 1.6 19.3 0.00 0.00 0.00 62 1016.4
20260502214504 23 54 8.0 19.3 0.00 0.00 0.00 60 1016.4
20260502214005 22 309 1.6 11.3 0.00 0.00 0.00 63 1016.5
20260502213505 22 47 1.6 9.7 0.00 0.00 0.00 62 1016.6
20260502213003 22 265 3.2 11.3 0.00 0.00 0.00 60 1016.6
20260502212504 22 309 3.2 11.3 0.00 0.00 0.00 65 1016.6
20260502212002 22 51 3.2 11.3 0.00 0.00 0.00 64 1016.7
20260502211508 22 312 3.2 14.5 0.00 0.00 0.00 62 1016.7
20260502211000 22 27 4.8 14.5 0.00 0.00 0.00 63 1016.8
20260502210502 22 212 1.6 12.9 0.00 0.00 0.00 65 1016.8
20260502210006 22 30 3.2 11.3 0.00 0.00 0.00 66 1016.8
20260502205502 22 74 3.2 11.3 0.00 0.00 0.00 67 1016.9
20260502205002 21 54 3.2 9.7 0.00 0.00 0.00 66 1017.0
20260502204504 21 221 1.6 12.9 0.00 0.00 0.00 65 1017.0
20260502204003 21 93 1.6 17.7 0.00 0.00 0.00 65 1017.0
20260502203503 21 49 9.7 17.7 0.00 0.00 0.00 63 1017.1
20260502203003 21 76 3.2 9.7 0.00 0.00 0.00 65 1017.1
20260502202504 21 330 3.2 16.1 0.00 0.00 0.00 68 1017.2
20260502202003 21 51 3.2 16.1 0.00 0.00 0.00 66 1017.3
20260502201503 21 93 4.8 16.1 0.00 0.00 0.00 65 1017.3
20260502201004 21 230 1.6 12.9 0.00 0.00 0.00 66 1017.2
20260502200503 21 30 4.8 20.9 0.00 0.00 0.00 66 1017.1
20260502200005 21 15 4.8 20.9 0.00 0.00 0.00 68 1017.2
20260502195503 21 338 3.2 14.5 0.00 0.00 0.00 66 1017.1
20260502195005 21 265 3.2 14.5 0.00 0.00 0.00 69 1017.2